This is the latest recevied weather packets stored in our database for station/object SQ5LTL-2. If no packets are shown the sender has not sent any weather packets the latest 10 day(s).
| Time | Temp. | Humidity | Pressure | Rain* | Wind** | Luminosity | Snow |
|---|---|---|---|---|---|---|---|
| 1777708218 | 17.78° C | 48% | 1026.5 hPa | 0 mm | - | 416 W/m² | - |
| 1777707916 | 17.22° C | 50% | 1026.5 hPa | 0 mm | - | 409 W/m² | - |
| 1777707616 | 17.22° C | 49% | 1026.4 hPa | 0 mm | - | 395 W/m² | - |
| 1777707334 | 17.22° C | 50% | 1026.5 hPa | 0 mm | - | 378 W/m² | - |
| 1777707034 | 17.22° C | 50% | 1026.5 hPa | 0 mm | - | 363 W/m² | - |
| 1777706732 | 17.22° C | 50% | 1026.5 hPa | 0 mm | - | 340 W/m² | - |
| 1777706429 | 17.22° C | 51% | 1026.6 hPa | 0 mm | - | 315 W/m² | - |
| 1777706128 | 16.67° C | 52% | 1026.5 hPa | 0 mm | - | 332 W/m² | - |
| 1777705826 | 16.67° C | 52% | 1026.6 hPa | 0 mm | - | 316 W/m² | - |
| 1777705525 | 16.67° C | 52% | 1026.5 hPa | 0 mm | - | 311 W/m² | - |
| 1777705224 | 16.67° C | 53% | 1026.6 hPa | 0 mm | - | 308 W/m² | - |
| 1777704922 | 16.11° C | 54% | 1026.5 hPa | 0 mm | - | 302 W/m² | - |
| 1777704620 | 16.11° C | 54% | 1026.5 hPa | 0 mm | - | 288 W/m² | - |
| 1777704319 | 16.11° C | 55% | 1026.5 hPa | 0 mm | - | 299 W/m² | - |
| 1777704018 | 15.56° C | 57% | 1026.5 hPa | 0 mm | - | 287 W/m² | - |
| 1777703716 | 15.56° C | 57% | 1026.6 hPa | 0 mm | - | 266 W/m² | - |
| 1777703435 | 15° C | 58% | 1026.6 hPa | 0 mm | - | 257 W/m² | - |
| 1777703134 | 15° C | 60% | 1026.6 hPa | 0 mm | - | 247 W/m² | - |
| 1777702832 | 14.44° C | 61% | 1026.6 hPa | 0 mm | - | 237 W/m² | - |
| 1777702531 | 13.89° C | 63% | 1026.6 hPa | 0 mm | - | 227 W/m² | - |
| 1777702229 | 13.89° C | 63% | 1026.6 hPa | 0 mm | - | 213 W/m² | - |
| 1777701928 | 13.33° C | 64% | 1026.6 hPa | 0 mm | - | 201 W/m² | - |
| 1777701627 | 13.33° C | 64% | 1026.6 hPa | 0 mm | - | 193 W/m² | - |
| 1777701325 | 13.33° C | 65% | 1026.6 hPa | 0 mm | - | 184 W/m² | - |
| 1777701024 | 12.78° C | 67% | 1026.6 hPa | 0 mm | - | 175 W/m² | - |
* Rain latest hour (hover to see other rain measurements)
** Current wind speed in m/s (hover to see current wind gust speed)